EHI
0 0 0 0 0 0 0 0 0 0 0 0 0 0 0 0 0 0 0 0 0 0 0 0 0 1 1 1 0 0 0 0 0 0 0 0 0 0 0 0 0 0 0 0
0 0 0 0 0 0 0 0 0 0 0 0 0 0 0 0 0 0 0 0 0 0 0 0 0 1 1 0 0 0 0 0 0 0 0 0 0 0 0 0 0 0 0 0
0 0 0 0 0 0 0 0 0 0 0 0 0 0 0 0 0 0 0 0 0 0 0 0 0 0 0 0 0 0 0 0 0 0 0 0 0 0 0 0 0 0 0 0
0 0 0 0 0 0 0 0 0 0 0 0 0 0 0 0 0 0 0 0 0 0 0 0 0 0 0 0 0 0 0 0 0 0 0 0 0 0 0 0 0 0 0 0
0 0 0 0 0 0 0 0 0 0 0 0 0 0 0 0 0 0 0 0 0 0 0 0 0 0 0 0 0 0 0 0 0 0 0 0 0 0 0 0 0 0 0 0
0 0 0 0 0 0 0 0 0 0 0 0 0 0 0 0 0 0 0 0 0 0 0 0 0 0 0 0 0 0 0 0 0 0 0 0 0 0 0 0 0 0 0 0
0 0 0 0 0 0 0 0 0 0 0 0 0 0 0 0 0 0 0 0 0 0 0 0 0 0 0 0 0 0 0 0 0 0 0 0 0 0 0 0 0 0 0 0
0 0 0 0 0 0 0 0 0 0 0 0 0 0 0 0 0 0 0 0 0 0 0 0 0 0 0 0 0 0 0 0 0 0 0 0 0 0 0 0 0 0 0 0
0 0 0 0 0 0 0 0 0 0 0 0 0 0 0 0 0 0 0 0 0 0 0 0 0 0 0 0 0 0 0 0 0 0 0 0 0 0 0 0 0 0 0 0
0 0 0 0 0 0 0 0 0 0 0 0 0 0 0 0 0 0 0 0 0 0 0 0 0 0 0 0 0 0 0 0 0 0 0 0 0 0 0 0 0 0 0 0
0 0 0 0 0 0 0 0 0 0 0 0 0 0 0 0 0 0 0 0 0 0 0 0 0 0 0 0 0 0 0 0 0 0 0 0 0 0 0 0 0 0 0 0
0 0 0 0 0 0 0 0 0 0 0 0 0 0 0 0 0 0 0 0 0 0 0 0 0 0 0 0 0 0 0 0 0 0 0 0 0 0 0 0 0 0 0 0
0 0 0 0 0 0 0 0 0 0 0 0 0 0 0 0 0 0 0 0 0 0 0 0 0 0 0 0 0 0 0 0 0 0 0 0 0 0 0 0 0 0 0 0
0 0 0 0 0 0 0 0 0 0 0 0 0 0 0 0 0 0 0 0 0 0 0 0 0 0 0 0 0 0 0 0 0 0 0 0 0 0 0 0 0 0 0 0
0 0 0 0 0 0 0 0 0 0 0 0 0 0 0 0 0 0 0 0 0 0 0 0 0 0 0 0 0 0 0 0 0 0 0 0 0 0 0 0 0 0 0 0
0 0 0 0 0 0 0 0 0 0 0 0 0 0 0 0 0 0 0 0 0 0 0 0 0 0 0 0 0 0 0 0 0 0 0 0 0 0 0 0 0 0 0 0
0 0 0 0 0 0 0 0 0 0 0 0 0 0 0 0 0 0 0 0 0 0 0 0 0 0 0 0 0 0 0 0 0 0 0 0 0 0 0 0 0 0 0 0
0 0 0 0 0 0 0 0 0 0 0 0 0 0 0 0 0 0 0 0 0 0 0 0 0 0 0 0 0 0 0 0 0 0 0 0 0 0 0 0 0 0 0 0
0 0 0 0 0 0 0 0 0 0 0 0 0 0 0 0 0 0 0 0 0 0 0 0 0 0 0 0 0 0 0 0 0 0 0 0 0 0 0 0 0 0 0 0
0 0 0 0 0 0 0 0 0 0 0 0 0 0 0 0 0 0 0 0 0 0 0 0 0 0 0 0 0 0 0 0 0 0 0 0 0 0 0 0 0 0 0 0
0 0 0 0 0 0 0 0 0 0 0 0 0 0 0 0 0 0 0 0 0 0 0 0 0 0 0 0 0 0 0 0 0 0 0 0 0 0 0 0 0 0 0 0
0 0 0 0 0 0 0 0 0 0 0 0 0 0 0 0 0 0 0 0 0 0 0 0 0 0 0 0 0 0 0 0 0 0 0 0 0 0 0 0 0 0 0 0
0 0 0 0 0 0 0 0 0 0 0 0 0 0 0 0 0 0 0 0 0 0 0 0 0 0 0 0 0 0 0 0 0 0 0 0 0 0 0 0 0 0 0 0
0 0 0 0 0 0 0 0 0 0 0 0 0 0 0 0 0 0 0 0 0 0 0 0 0 0 0 0 0 0 0 0 0 0 0 0 0 0 0 0 0 0 0 0
0 0 0 0 0 0 0 0 0 0 0 0 0 0 0 0 0 0 0 0 0 0 0 0 0 0 0 0 0 0 0 0 0 0 0 0 0 0 0 0 0 0 0 0
0 0 0 0 0 0 0 0 0 0 0 0 0 0 0 0 0 0 0 0 0 0 0 0 0 0 0 0 0 0 0 0 0 0 0 0 0 0 0 0 0 0 0 0
Wind_Speed
2 3 3 6 7 4 3 3 5 4 2 3 7 9 7 4 4 4 3 3 3 3 2 1 1 1 1 1 2 1 2 2 2 1 1 1 1 1 1 1 1 1 1 1
3 3 6 3 3 3 3 3 4 4 1 3 5 9 6 5 5 5 5 4 4 2 1 0 0 1 0 1 1 1 2 1 2 1 0 0 0 0 0 1 1 1 0 1
5 3 2 3 2 3 5 6 5 4 3 1 3 8 6 4 3 3 4 4 3 4 3 2 1 1 1 0 0 1 1 1 1 1 1 2 1 1 1 2 2 2 1 0
3 4 2 2 4 5 7 5 4 3 2 4 1 7 6 4 5 5 5 4 4 4 3 2 2 2 1 1 0 0 1 1 1 1 2 2 1 1 0 1 1 2 1 1
3 2 2 4 4 5 5 1 3 3 3 3 2 5 8 2 5 7 7 6 5 4 4 3 3 2 1 0 0 0 1 1 1 1 2 2 1 0 0 0 1 1 1 1
3 2 2 4 2 3 2 1 1 1 1 6 6 7 9 5 7 5 5 5 5 4 3 2 1 1 0 0 0 0 0 0 1 1 1 2 2 1 1 0 1 1 1 1
4 3 2 1 1 0 2 2 1 3 2 7 3 6 10 4 4 4 5 5 4 3 3 2 1 1 1 0 0 0 1 0 0 1 1 1 2 2 2 2 1 1 1 1
2 5 3 2 4 4 4 5 5 5 5 5 2 8 7 2 1 1 2 2 2 2 2 2 2 2 1 1 1 1 1 0 1 1 1 1 1 1 1 1 1 2 2 2
3 5 1 1 2 4 4 4 3 3 1 4 6 6 7 1 1 0 1 1 2 2 2 2 1 1 1 1 1 1 1 1 1 1 1 1 1 1 1 1 1 2 2 2
3 4 3 2 1 1 3 5 4 4 3 6 6 6 6 4 4 3 3 3 3 2 1 1 1 1 1 1 1 1 1 1 1 1 1 1 1 1 1 1 2 2 2 2
2 3 3 1 5 6 4 3 3 3 4 4 5 8 4 5 5 6 6 4 3 3 2 2 1 1 0 1 1 1 1 1 1 1 1 1 1 1 1 1 2 2 2 2
3 3 4 6 3 2 4 6 6 5 5 4 4 10 2 3 3 4 4 3 2 2 2 1 1 0 0 1 1 1 2 1 1 1 1 1 1 1 1 2 2 2 2 3
4 4 1 4 1 0 2 3 5 4 3 4 6 10 1 1 1 2 2 2 2 1 1 0 0 0 1 1 1 1 2 2 1 1 1 1 1 1 2 2 2 2 3 3
4 4 6 8 5 3 5 5 6 6 6 7 12 11 7 5 4 3 3 3 2 1 1 1 1 1 1 1 1 1 2 2 2 1 1 1 2 2 2 2 2 2 3 3
4 4 5 7 5 4 6 8 8 10 10 11 11 10 12 8 6 4 3 2 1 1 2 2 2 1 1 1 1 1 2 2 2 1 1 2 2 2 2 2 3 3 3 3
3 3 2 5 4 5 8 10 11 11 10 11 11 14 7 3 2 2 3 3 3 3 3 2 2 2 2 2 2 2 2 3 2 2 2 2 2 3 3 3 3 3 3 3
4 4 2 5 3 3 9 9 10 8 7 8 11 11 2 2 3 4 4 3 4 3 2 2 2 2 2 2 2 2 2 3 2 2 2 2 3 3 3 4 3 3 3 3
5 4 2 2 2 8 8 2 5 7 7 7 7 5 3 3 2 2 3 3 3 2 2 2 1 1 1 1 1 2 2 2 2 2 2 3 3 3 3 3 4 4 3 3
4 5 3 2 4 10 7 2 3 4 7 5 7 6 3 0 2 2 1 2 1 1 1 1 1 1 1 1 1 1 2 2 2 3 3 3 3 3 3 4 4 4 4 4
1 2 3 3 4 8 6 1 1 2 6 2 3 4 2 1 1 3 1 1 1 1 1 1 1 1 1 1 1 1 1 2 3 4 4 4 3 3 4 4 4 4 4 4
2 2 5 6 7 10 4 1 2 3 5 1 2 3 2 3 3 1 1 2 1 1 1 1 1 1 1 1 1 1 2 3 4 4 4 4 4 4 4 3 3 4 4 4
7 6 6 5 6 10 2 4 5 5 1 0 1 1 1 2 0 0 1 1 2 2 2 1 1 1 2 1 1 2 3 4 4 4 4 4 4 4 3 3 4 4 4 4
6 7 6 8 8 2 3 4 2 1 1 1 1 0 2 1 1 0 1 1 1 1 1 1 1 1 2 1 1 2 4 4 4 4 4 4 4 4 3 3 3 3 3 3
3 1 2 4 6 3 2 2 1 1 1 0 0 1 1 1 0 1 1 1 2 2 1 1 1 1 2 2 2 2 3 3 3 4 4 4 4 4 3 3 3 3 3 3
3 3 3 5 5 3 3 3 3 1 1 1 1 1 1 1 0 0 1 2 2 2 1 1 1 1 2 2 3 3 3 3 3 4 4 4 4 3 3 3 3 4 4 4
4 5 6 7 4 4 4 1 1 2 1 1 1 1 1 0 1 0 1 1 1 1 1 1 1 2 3 3 4 3 3 2 3 4 4 3 3 3 3 4 4 7 7 10
Wind_Direction
44 85 210 219 211 210 177 200 240 252 246 222 242 252 247 221 200 207 215 210 214 224 231 177 106 66 96 98 91 94 85 71 69 70 53 33 60 45 55 46 50 50 92 104
55 247 240 212 191 202 206 234 255 278 271 235 260 264 245 217 204 203 207 216 223 232 245 201 104 77 46 155 135 125 109 95 84 75 116 279 212 132 81 31 33 21 65 118
194 236 225 189 202 218 227 222 233 254 313 282 300 282 232 213 197 199 207 211 214 214 221 230 230 239 247 298 270 166 140 115 95 86 86 52 54 59 42 21 7 359 350 335
235 260 228 207 221 205 245 230 224 231 259 275 199 282 261 207 219 221 220 218 222 226 221 217 218 233 241 257 297 234 145 116 103 115 116 128 141 149 263 290 315 336 355 6
245 231 208 225 232 205 231 249 220 221 212 268 222 239 276 186 230 230 220 217 222 222 214 214 213 220 238 253 225 256 154 128 121 140 147 148 153 130 100 34 353 340 339 348
256 252 218 224 240 199 188 61 75 97 150 253 220 208 268 221 223 226 211 207 214 216 215 218 214 163 117 128 123 209 134 98 140 145 155 152 164 150 124 60 317 316 316 324
298 261 241 180 126 71 101 102 347 311 259 248 196 215 250 242 222 213 204 204 205 201 201 204 193 201 198 218 233 212 181 328 319 197 184 173 175 179 180 199 223 266 291 301
268 274 225 199 193 191 198 172 185 225 244 273 236 235 252 245 227 202 187 182 183 193 205 209 215 219 227 236 243 240 227 240 284 264 248 204 177 189 208 221 232 240 253 266
206 258 335 218 204 169 173 200 194 166 267 269 258 272 290 224 287 112 160 172 212 215 214 218 229 232 241 242 244 232 234 234 258 265 286 257 204 212 229 245 251 251 269 279
170 259 286 291 144 206 181 157 134 172 227 262 276 257 250 248 233 215 213 221 233 226 222 225 237 269 290 302 308 301 242 250 260 258 246 270 251 247 246 244 256 267 278 278
160 203 292 297 203 195 163 172 171 181 192 206 268 267 238 226 210 202 213 219 221 214 222 230 245 266 289 350 339 334 315 302 299 279 273 275 278 275 263 259 264 273 283 277
163 150 254 252 237 193 186 193 172 189 225 209 238 267 295 242 231 205 215 223 218 211 207 212 213 222 349 330 330 320 316 307 305 299 298 288 288 288 268 275 279 280 282 278
151 146 306 318 293 191 219 211 195 180 162 196 219 261 342 7 300 224 221 239 236 214 197 184 207 241 263 289 312 311 312 305 317 314 305 306 303 301 288 286 289 284 281 282
145 172 198 224 238 194 220 220 199 185 209 229 232 252 274 270 262 255 241 231 223 217 215 223 251 269 279 291 298 312 319 315 311 314 302 302 301 297 295 297 298 289 281 275
144 211 232 254 263 240 237 232 211 212 218 225 244 245 257 254 245 240 231 219 212 235 235 234 239 253 276 295 307 313 316 321 316 306 306 307 311 312 312 311 307 301 295 288
157 211 234 268 247 246 260 250 232 233 235 240 257 267 266 267 238 230 228 213 226 246 254 249 240 247 263 278 294 309 313 318 323 315 316 322 327 329 325 317 311 308 308 304
176 173 206 266 288 309 265 237 217 217 214 205 233 249 250 263 245 236 231 223 230 243 260 253 242 244 256 263 275 286 305 319 327 323 328 332 328 325 322 319 319 310 305 306
172 167 196 266 7 247 249 201 202 217 243 227 240 252 239 234 268 275 242 220 229 251 270 281 264 270 284 289 317 327 332 328 328 327 330 333 327 319 318 316 311 304 301 299
189 172 182 192 245 271 285 232 174 205 269 234 232 253 268 349 354 320 263 177 212 267 291 301 302 279 310 323 330 347 338 333 337 330 324 323 318 315 317 314 307 305 306 304
81 159 177 185 222 249 260 247 199 119 284 255 199 237 248 95 289 278 43 45 27 25 15 358 1 35 11 330 340 359 327 333 325 317 312 311 310 307 305 303 304 306 302 300
149 175 204 214 235 262 263 248 126 183 258 275 194 212 193 211 227 249 13 23 47 41 22 23 41 38 329 326 354 339 331 315 310 315 315 314 311 306 301 303 307 309 309 313
182 181 197 186 219 254 190 143 190 224 291 140 214 229 197 197 205 36 26 24 25 21 20 26 36 6 353 4 5 331 317 313 319 321 317 313 312 311 315 316 312 311 311 309
204 197 192 197 216 243 172 196 225 199 196 243 250 222 146 165 224 316 356 352 5 358 352 8 37 0 348 350 342 308 311 321 325 323 316 310 310 308 310 307 307 310 312 308
245 232 202 248 264 258 236 262 295 237 196 229 101 102 135 174 244 330 329 340 344 344 349 5 29 345 323 329 324 306 314 324 317 312 310 308 309 310 312 304 300 299 299 302
219 178 211 251 275 310 279 244 247 233 139 99 66 85 136 156 227 273 310 321 323 335 349 353 323 301 303 313 311 312 317 318 310 305 306 309 308 304 301 301 294 295 281 291
195 188 197 235 226 213 252 262 202 167 179 161 116 35 26 126 207 289 300 308 316 320 331 329 317 306 305 309 306 309 310 303 298 306 310 308 310 308 308 307 308 305 307 308